This is the latest recevied weather packets stored in our database for station/object HOWARD. If no packets are shown the sender has not sent any weather packets the latest 10 day(s).
| Time | Temp. | Humidity | Pressure | Rain* | Wind** | Luminosity | Snow |
|---|---|---|---|---|---|---|---|
| 1777633902 | 3.89° C | 45% | 1015 hPa | 0 mm | - | - | - |
| 1777633302 | 3.89° C | 45% | 1015 hPa | 0 mm | - | - | - |
| 1777632702 | 3.89° C | 45% | 1015 hPa | 0 mm | - | - | - |
| 1777632102 | 3.89° C | 45% | 1015 hPa | 0 mm | - | - | - |
| 1777631502 | 3.89° C | 46% | 1015.2 hPa | 0 mm | - | - | - |
| 1777630902 | 3.89° C | 46% | 1015.1 hPa | 0 mm | - | - | - |
| 1777630302 | 3.89° C | 46% | 1015.1 hPa | 0 mm | - | - | - |
| 1777629702 | 3.89° C | 47% | 1015.1 hPa | 0 mm | - | - | - |
| 1777629102 | 3.89° C | 49% | 1015.1 hPa | 0 mm | - | - | - |
| 1777628502 | 3.89° C | 48% | 1015.2 hPa | 0 mm | - | - | - |
| 1777627902 | 3.89° C | 49% | 1015.3 hPa | 0 mm | - | - | - |
| 1777627302 | 3.89° C | 49% | 1015.3 hPa | 0 mm | - | - | - |
| 1777626702 | 3.89° C | 49% | 1015.3 hPa | 0 mm | - | - | - |
| 1777626102 | 3.89° C | 51% | 1015.4 hPa | 0 mm | - | - | - |
| 1777625502 | 3.33° C | 56% | 1015.5 hPa | 0 mm | - | - | - |
| 1777624902 | 3.33° C | 56% | 1015.6 hPa | 0 mm | - | - | - |
| 1777624339 | 3.33° C | 56% | 1015.7 hPa | 0 mm | - | - | - |
| 1777624302 | 3.33° C | 56% | 1015.7 hPa | 0 mm | - | - | - |
| 1777623702 | 4.44° C | 49% | 1016 hPa | 0 mm | - | - | - |
| 1777623102 | 3.89° C | 48% | 1016.1 hPa | 0 mm | - | - | - |
| 1777622561 | 4.44° C | 46% | 1016.1 hPa | 0 mm | - | - | - |
| 1777622502 | 4.44° C | 46% | 1016.1 hPa | 0 mm | - | - | - |
| 1777621902 | 4.44° C | 50% | 1016.2 hPa | 0 mm | - | - | - |
| 1777621302 | 4.44° C | 51% | 1016.2 hPa | 0 mm | - | - | - |
| 1777620702 | 4.44° C | 50% | 1016.3 hPa | 0 mm | - | - | - |
* Rain latest hour (hover to see other rain measurements)
** Current wind speed in m/s (hover to see current wind gust speed)